Beidou DW 8

operational
NORAD ID: 37384 Int'l Des: 2011-013 Owner: CNSA Country: CN Constellation: BeiDou
HEOCIRCULARGSO

About Beidou DW 8

Description loading...

Live Position

Loading 3D Globe...

Upcoming Passes

Altitude History

Altitude vs Time

uPlot chart will show altitude changes over time

Two-Line Element Set

1 37384U 11013A 25351.67789472 -.00000179 00000-0 00000-0 0 9995
2 37384 62.1500 41.8689 0035356 187.9380 208.2285 1.00269735 53845
Epoch: Dec 17, 2025 • Age: 6 hours

Current Status

Altitude 35712.0 km
Velocity 3.08 km/s
Sub-Earth Point 42.33°N, 127.92°E
Launch Date Apr 9, 2011
Age 14.6 years
Type navigation

Technical Details

Classification Payload
Mass 2300.00 kg
Dry Mass 1300.00 kg
Total Mass 2300.00 kg
Length 3.00 m
Diameter 1.70 m
Span 18.00 m
Shape Box + 2 Pan
Manufacturer CAST
Bus Type DFH-3
Phase Status In Orbit
Owner/State CNSA/CN

Large Constellations

Loading constellations...